Regional Weather Roundup
Issued by NWS Albany, NY

Home | Current Version | Previous Version | Graphics & Text | Print | Product List | Glossary Off
Versions: 1 2 3 4 5 6 7 8 9 10 11 12 13 14 15 16 17 18 19 20 21 22 23 24 25 26 27 28 29 30 31 32 33 34 35 36 37 38 39 40 41 42 43 44 45 46 47 48 49 50

000
ASUS41 KALY 031010
RWRALY

NEW YORK STATE HOURLY WEATHER ROUNDUP
NATIONAL WEATHER SERVICE ALBANY NY
600 AM EDT SUN MAY 03 2015

NOTE: "FAIR" INDICATES FEW OR NO CLOUDS BELOW 12,000 FEET WITH NO
SIGNIFICANT WEATHER AND/OR NO OBSTRUCTIONS TO VISIBILITY.

NYZ032-033-038>043-046>054-057>066-NYZ062>081-031100-
EAST


CITY           SKY/WX    TMP DP  RH WIND       PRES   REMARKS
ALBANY         PTCLDY    50  42  74 S3        30.03R
GLENS FALLS    PTCLDY    43  36  76 CALM      30.01R
POUGHKEEPSIE   PTCLDY    43  38  82 CALM      30.04R
NEWBURGH       CLEAR     45  41  87 CALM      30.04S
MONTGOMERY     CLEAR     39  38  96 CALM      30.04R FOG
WHITE PLAINS   CLEAR     43  38  82 NW3       30.04S
ISLIP          PTCLDY    44  38  79 SW3       30.04S
NEW YORK CITY  PTCLDY    51  36  56 S5        30.04F
CENTRAL PARK   CLEAR     51  35  54 VRB5      30.07S
$$

NYZ005>009-017-018-044>046-055-056-031100-
CENTRAL


CITY           SKY/WX    TMP DP  RH WIND       PRES   REMARKS
FULTON         MOCLDY    44  39  82 CALM      30.02R
SYRACUSE       PTCLDY    46  38  73 E5        30.02R
ROME           MOCLDY    39  36  89 CALM      30.05R
ELMIRA         PTCLDY    39  36  89 CALM      30.06S
BINGHAMTON     PTCLDY    47  35  63 SW5       30.05R
MONTICELLO     CLEAR     41  36  81 CALM      30.06S
$$

NYZ026>034-041>043-031100-
NORTH


CITY           SKY/WX    TMP DP  RH WIND       PRES   REMARKS
WATERTOWN      CLEAR     48  34  58 CALM      30.00S
FORT DRUM      NOT AVBL
MASSENA        CLEAR     48  38  68 SW7       29.98R
SARANAC LAKE   PTCLDY    32  29  88 CALM      29.99R
PLATTSBURGH    PTCLDY    47  40  76 CALM      29.96R
$$

NYZ001>004-010>016-019>021-031100-
WEST


CITY           SKY/WX    TMP DP  RH WIND       PRES   REMARKS
NIAGARA FALLS  CLEAR     45  36  70 SW6       30.02R
BUFFALO        PTCLDY    48  35  60 S6        30.02S
DUNKIRK        CLEAR     51  37  58 SW8       30.03S
JAMESTOWN      CLEAR     46  32  57 S6        30.07S
WELLSVILLE     CLEAR     51  29  42 CALM      30.08R
ROCHESTER      PTCLDY    50  36  58 SW7       30.02S
PENN YAN       PTCLDY    49  38  65 SW9       30.04R
$$

             KEY
       WCI = WIND CHILL INDEX
       VSB = VISIBILITY
       HX  = HEAT INDEX
$$



USA.gov is the U.S. government's official web portal to all federal, state and local government web resources and services.